Volver al catálogo

CZ-4C DEB

ActivoSSO
NORAD 44616·DEBRIS·🇨🇳 China

Lanzado Mar 31, 2018 desde Taiyuan Satellite Launch Center

Loading…

Próximos Pases (próximas 24 horas)

TLE

EnvejeciendoSource: Space-Track

Época: Sep 10, 2026, 11:10 UTC

1 44616U 18031K   26253.46536279  .00003353  00000-0  29607-3 0  9995
2 44616  97.7948 338.0544 0005353  23.5271 336.6195 14.97047451438976

Sigue CZ-4C DEB en tiempo real con AllMySat

Download on the App Store